Temperature
22 23 23 24 24 25 25 25 25 25 24 24 24 24 25 24 22 22 22 22 22 21 20 18 17 17 16 16 15 14 14 13 13 13 13 12 12 12 12 12 12 12 12 12
23 23 24 25 24 24 24 24 25 25 23 24 24 25 25 24 23 23 23 23 22 21 20 18 17 17 16 16 15 15 14 13 13 12 12 12 12 12 12 12 12 12 12 12
24 24 24 24 23 24 24 24 25 24 23 23 24 25 25 24 23 22 22 22 22 21 20 19 18 17 16 16 15 14 14 13 13 12 12 12 12 12 12 12 12 12 12 12
24 24 23 24 24 24 24 24 24 24 24 25 24 24 26 25 24 23 22 22 21 20 20 19 18 17 16 16 15 14 14 13 13 12 12 12 12 12 12 12 12 12 12 12
23 23 24 24 24 24 24 23 24 24 24 24 24 24 26 24 25 25 24 22 21 20 19 19 18 17 16 16 15 14 14 13 13 12 12 12 12 12 12 12 12 12 12 12
23 23 24 24 23 23 23 23 23 24 24 24 24 24 25 26 25 25 24 22 21 20 19 18 18 17 16 15 15 14 14 13 13 13 12 12 12 12 12 12 12 12 12 12
23 23 23 23 23 22 23 24 24 24 24 24 23 23 25 25 24 24 24 23 21 20 19 18 18 17 16 16 15 14 14 13 13 13 12 12 12 12 12 12 12 12 12 12
23 23 23 24 24 24 24 25 24 23 24 24 23 24 26 24 23 22 22 22 21 20 19 18 18 17 16 16 15 15 14 13 13 13 12 12 12 12 12 12 12 12 12 12
25 24 23 23 24 25 24 24 25 25 24 24 25 25 25 24 23 23 22 21 21 20 19 18 18 17 16 16 15 15 14 14 13 13 13 12 12 12 12 12 11 12 11 11
25 24 24 23 23 22 24 25 24 24 23 23 24 24 25 25 24 24 23 22 21 20 19 18 18 17 17 16 15 15 14 14 13 13 13 12 12 12 12 12 12 12 12 12
25 25 24 24 24 25 23 24 24 24 24 23 23 25 25 25 24 24 24 23 21 20 19 18 18 17 17 16 15 15 14 14 13 13 13 12 12 12 12 12 12 12 12 12
24 25 25 24 24 23 24 25 24 24 24 23 23 25 25 24 24 23 23 22 21 20 19 18 18 17 17 16 16 15 15 14 14 13 13 13 12 12 12 12 12 12 12 12
24 25 24 24 24 23 23 23 23 24 24 23 23 24 25 24 24 23 22 22 21 20 19 18 18 17 17 16 16 15 15 14 14 14 13 13 13 12 12 12 12 12 12 12
23 25 25 24 24 24 24 23 22 23 24 24 24 24 25 25 25 24 23 22 21 20 19 19 18 18 17 17 16 15 15 15 14 14 13 13 13 13 12 12 12 12 12 12
24 25 25 25 24 24 24 24 23 23 24 24 24 24 25 26 25 24 23 22 21 20 19 19 18 18 17 17 16 16 15 15 14 14 14 13 13 13 13 13 13 12 12 12
24 24 24 24 24 23 23 23 23 23 23 23 24 24 26 25 24 23 22 21 21 20 20 19 19 18 18 17 17 16 16 15 15 14 14 14 13 13 13 13 13 13 13 13
24 24 24 24 24 23 23 24 24 24 24 24 24 25 26 25 24 24 23 22 21 21 20 20 19 19 18 18 17 16 16 15 15 14 14 14 14 14 13 13 13 13 13 13
24 24 24 23 23 22 25 25 24 24 24 24 24 25 25 25 24 23 22 22 22 21 21 20 20 19 19 18 17 17 16 16 15 15 14 14 14 14 14 14 13 13 13 13
22 23 23 23 23 23 24 24 23 23 24 25 25 25 24 23 22 23 22 22 22 22 21 20 20 19 19 18 17 17 16 16 15 15 15 14 14 14 14 14 14 13 13 13
20 21 22 22 22 22 24 24 23 23 24 25 24 24 24 22 24 25 23 22 22 21 21 20 20 19 19 18 17 17 16 16 16 15 15 15 15 15 14 14 14 14 14 14
21 21 21 22 22 23 25 22 22 23 24 24 23 23 23 23 24 23 22 22 21 21 21 21 20 19 19 18 18 17 17 16 16 16 15 15 15 15 14 14 14 14 14 14
23 22 22 22 22 23 23 22 23 24 23 22 22 22 22 22 22 21 21 21 21 21 21 21 20 19 19 18 18 17 17 16 16 16 16 15 15 15 14 14 14 14 14 13
22 22 22 22 23 23 21 22 21 21 21 21 21 21 20 20 21 21 21 21 21 21 21 20 20 19 19 18 18 17 17 16 16 16 16 15 15 15 14 14 14 13 13 13
22 20 20 21 22 22 21 20 20 20 20 20 20 20 20 20 20 20 20 20 20 20 20 20 20 19 19 18 18 17 17 17 16 16 15 15 15 14 14 14 13 13 12 12
20 19 20 20 21 21 21 20 19 19 19 19 19 19 19 19 20 20 20 20 20 20 20 20 20 19 19 18 18 17 17 16 16 15 15 15 14 14 13 13 13 13 13 12
18 18 19 19 20 19 19 19 18 18 18 18 18 18 19 19 19 19 19 20 20 20 20 20 19 19 19 18 18 17 17 16 16 15 15 15 14 14 13 13 13 12 12 12
Wind_Speed
12 12 13 14 12 6 5 6 6 3 2 6 9 10 7 7 9 11 11 11 10 9 8 7 7 6 5 3 2 1 3 3 4 4 4 4 4 4 4 4 5 5 5 6
11 13 11 8 8 6 7 7 6 2 1 5 7 10 8 7 10 11 12 12 11 10 9 8 8 7 6 4 2 2 2 3 3 3 4 4 4 4 4 4 4 5 5 5
12 7 9 10 9 9 8 8 6 4 2 4 6 8 6 5 7 8 10 11 10 10 10 10 9 8 6 5 3 2 2 2 3 3 3 3 3 3 2 3 4 4 5 4
6 5 9 11 10 9 8 4 5 5 6 4 3 6 4 5 7 9 10 11 11 11 10 9 9 8 7 5 3 2 2 2 2 3 3 4 4 4 4 4 4 4 4 4
5 7 10 10 8 8 2 1 3 4 6 7 5 7 3 4 6 8 9 10 11 11 10 10 9 8 6 5 3 3 2 2 2 2 2 4 4 4 4 4 4 5 4 4
4 3 4 3 2 4 6 4 3 4 6 7 3 5 4 3 3 4 5 7 10 11 10 9 8 7 6 5 4 3 2 2 1 2 3 3 4 5 5 5 5 4 4 4
5 5 3 3 6 5 6 6 4 4 4 3 1 5 5 0 2 3 3 5 7 10 10 10 10 9 7 6 5 4 3 2 2 2 2 3 3 4 5 5 4 4 4 4
6 6 5 5 4 5 7 6 5 4 4 4 3 5 3 1 2 3 4 4 6 9 10 10 10 9 8 7 6 5 4 3 2 2 2 2 2 3 3 4 4 4 4 4
4 4 4 2 1 3 5 5 3 6 6 6 4 4 5 4 5 6 6 6 8 8 9 10 9 9 8 7 7 6 4 3 3 2 2 2 2 2 3 3 3 4 4 4
1 4 5 5 4 2 2 2 4 5 5 6 5 6 4 2 5 7 8 8 8 8 9 10 9 9 8 7 7 6 5 4 3 2 2 1 2 2 2 3 3 4 5 5
2 3 5 6 6 4 5 4 4 4 5 6 5 3 1 3 3 5 7 8 8 9 9 10 9 9 8 8 7 7 6 5 4 3 2 2 1 1 2 2 3 3 4 4
1 2 3 4 2 1 5 5 6 7 6 6 7 5 1 3 4 5 6 7 7 8 9 9 9 10 9 9 8 8 7 5 5 4 3 2 1 1 2 2 2 3 3 4
2 3 4 4 4 5 5 5 6 6 7 8 9 7 2 4 5 6 7 7 8 9 9 9 10 10 10 9 9 8 7 6 5 5 4 3 3 2 2 2 2 2 3 3
3 5 6 6 4 3 5 7 8 9 9 11 12 14 11 10 9 9 8 9 9 10 10 11 11 11 10 10 9 9 8 7 6 6 5 4 3 2 2 1 2 2 2 3
4 6 7 7 6 6 9 10 11 14 14 15 15 16 16 14 11 10 9 9 10 11 12 12 12 12 11 11 10 9 9 8 8 7 6 5 4 3 2 2 2 2 2 2
4 6 8 10 7 8 12 13 14 16 16 17 18 19 16 13 10 10 11 11 12 13 14 13 13 13 13 12 12 11 10 9 9 8 7 6 5 4 3 3 2 2 2 2
4 6 9 11 7 8 12 12 13 12 13 13 15 15 11 10 10 11 11 12 13 14 14 14 14 14 13 13 12 12 11 10 9 9 7 7 6 5 4 4 3 3 3 2
8 9 7 10 10 12 7 2 6 11 13 14 15 15 12 11 10 10 10 12 13 13 13 14 13 13 13 12 12 12 11 10 10 9 8 7 7 6 5 5 4 4 3 3
8 8 7 8 11 12 10 6 5 7 10 9 12 13 11 7 7 9 9 12 13 12 12 12 13 13 13 13 13 13 12 11 10 9 9 8 7 6 6 5 5 4 4 4
4 7 8 8 10 10 6 0 2 4 7 4 5 7 6 4 6 5 2 7 10 9 9 10 11 12 13 13 13 13 13 12 11 10 9 8 7 6 6 5 5 4 4 4
5 6 9 12 12 9 6 1 5 6 4 7 6 7 5 6 7 6 3 4 7 9 10 11 12 12 13 13 14 14 13 12 10 9 8 7 7 6 5 4 4 4 4 4
9 8 9 9 10 8 1 4 4 6 8 8 9 8 8 9 9 6 4 4 6 8 10 11 12 12 12 13 14 14 13 11 10 9 8 8 7 5 4 4 3 3 3 4
7 7 6 7 6 3 0 4 6 8 10 10 11 11 10 10 10 8 6 6 7 9 10 11 12 12 12 13 14 14 12 11 10 9 9 8 7 5 4 4 3 3 3 3
8 5 7 9 11 10 9 9 9 10 11 12 13 13 11 11 11 9 8 7 8 9 11 11 13 13 13 13 13 12 12 11 11 10 9 8 7 6 4 2 2 1 1 2
12 8 11 16 16 15 12 10 12 13 14 15 15 13 12 12 12 11 9 9 9 9 10 12 14 14 14 14 13 12 12 12 12 11 9 8 7 6 5 4 3 1 3 2
14 15 16 17 15 15 17 17 16 16 17 17 16 16 14 12 13 12 11 10 10 10 11 13 14 14 15 14 14 13 12 12 12 11 10 8 7 6 6 6 6 9 7 10
Wind_Direction
175 187 195 196 207 225 221 238 254 265 197 232 251 261 254 219 215 219 215 213 213 213 199 190 190 193 198 202 238 297 315 336 336 336 330 330 329 329 334 337 340 329 325 325
175 202 201 193 200 219 230 245 258 252 206 252 272 270 260 228 223 224 223 217 215 208 199 192 195 196 206 208 232 277 308 331 338 337 325 321 320 319 333 328 331 336 334 327
185 182 179 191 199 214 232 247 263 277 241 225 280 266 230 207 217 221 226 226 219 210 208 197 197 200 204 212 224 257 296 315 330 330 324 319 313 298 324 338 337 336 332 328
184 162 182 197 207 221 236 248 258 252 260 264 268 287 238 200 217 217 217 215 214 207 209 201 198 202 206 208 214 240 264 301 321 317 325 331 328 337 342 333 334 330 335 336
171 174 190 204 209 218 233 107 220 244 261 272 244 272 263 185 226 214 210 211 210 205 204 201 198 200 201 196 202 222 244 277 303 311 323 314 328 338 337 335 339 339 350 347
123 156 202 195 134 173 149 158 172 215 247 262 257 263 275 207 212 188 187 199 202 200 198 196 189 189 191 189 194 207 229 250 267 286 306 317 330 330 335 343 346 341 348 350
149 150 144 157 151 158 203 236 245 236 236 263 136 257 265 207 218 226 204 190 190 191 191 188 185 188 190 191 195 204 216 234 240 272 301 320 325 327 334 342 345 340 345 349
168 162 168 186 212 201 210 244 275 288 290 301 220 250 265 140 227 237 227 201 186 187 191 190 189 189 189 191 193 201 212 224 227 263 300 319 327 324 341 342 336 341 346 351
175 141 128 144 206 214 195 223 293 289 291 283 262 261 271 205 220 212 204 197 194 191 191 193 190 189 189 190 192 198 205 211 216 247 281 312 334 338 342 336 336 342 346 349
233 152 146 145 152 59 309 180 211 257 285 285 279 272 273 215 215 207 208 207 199 190 190 192 190 190 189 189 190 193 202 209 210 225 246 291 319 332 330 328 344 341 345 351
257 193 160 182 214 213 175 199 234 253 272 284 297 304 10 287 262 229 218 212 203 195 193 191 189 189 187 186 189 193 198 206 211 218 224 236 274 303 311 329 341 338 343 351
262 256 203 187 133 327 247 245 234 256 257 255 282 289 118 246 259 245 230 213 202 196 194 191 188 186 187 190 193 197 199 201 204 210 216 229 249 271 300 328 335 339 349 357
192 244 236 199 186 191 219 223 232 254 265 255 260 273 154 234 248 238 229 216 201 195 194 191 190 193 193 194 196 198 199 198 195 197 209 220 228 252 282 310 330 332 343 352
249 258 270 279 301 268 234 218 217 229 252 260 256 272 278 269 258 247 233 222 209 201 197 195 195 197 196 196 197 198 198 195 193 194 207 218 227 234 258 282 305 316 331 342
253 271 270 277 282 267 261 251 229 235 255 267 275 276 278 280 272 257 241 224 212 208 205 202 200 199 196 196 197 197 196 194 193 197 207 216 221 223 239 253 271 292 311 322
259 271 272 268 263 259 261 258 249 247 255 262 270 275 277 277 271 253 236 222 216 213 209 205 203 199 198 197 196 194 195 193 194 201 207 208 217 220 231 244 256 272 284 299
254 266 275 277 277 271 265 259 248 246 242 250 262 273 281 272 261 250 239 226 221 217 209 204 203 200 200 198 196 193 194 190 195 202 205 204 209 216 227 232 239 251 259 273
255 257 266 277 277 265 284 298 256 257 261 255 261 271 275 274 276 264 245 233 225 217 209 204 202 198 197 194 191 190 187 191 197 202 203 203 208 214 219 224 235 248 260 263
240 242 252 262 268 273 279 266 235 248 275 276 266 270 274 283 276 256 235 228 226 216 208 201 198 193 191 188 186 186 189 193 198 202 204 202 204 210 217 224 233 243 252 257
205 226 242 247 261 269 280 286 186 251 269 344 309 296 286 256 260 275 249 221 217 208 197 190 186 187 187 184 183 188 192 195 199 199 202 200 202 208 219 230 241 242 244 253
206 215 232 247 257 265 287 165 178 243 319 6 346 329 295 255 275 317 292 236 211 195 186 180 179 184 185 179 181 191 194 197 194 190 192 194 199 208 219 230 236 240 243 249
256 247 240 243 250 259 132 162 219 318 344 339 332 328 307 285 296 304 272 233 205 190 183 180 180 181 179 178 184 192 194 189 181 180 185 190 194 199 203 212 226 234 238 244
248 260 268 248 261 345 329 272 307 324 317 325 325 321 309 293 285 285 269 240 213 199 188 185 184 179 178 182 189 193 186 179 177 179 183 185 184 185 193 201 209 222 234 253
264 271 265 266 269 288 297 293 299 307 307 312 315 313 304 290 284 277 263 243 219 205 194 187 184 184 184 185 190 193 180 176 180 183 183 183 183 179 174 171 190 205 239 254
277 273 272 274 281 292 287 300 314 316 311 309 311 308 299 290 282 274 262 244 225 209 198 192 193 192 189 184 186 185 179 179 184 184 181 182 178 171 158 136 84 90 62 27
263 264 267 272 288 292 294 305 312 312 310 309 308 305 300 288 280 274 264 249 231 216 203 199 199 195 191 185 183 180 180 183 186 185 181 178 172 165 158 143 112 66 70 70
Height
1492 1493 1495 1494 1494 1495 1496 1499 1500 1499 1500 1502 1500 1498 1497 1501 1503 1505 1506 1508 1510 1513 1516 1517 1518 1519 1519 1520 1520 1519 1518 1517 1514 1513 1511 1510 1508 1507 1505 1503 1500 1499 1498 1496
1492 1492 1490 1492 1495 1497 1498 1500 1499 1498 1501 1500 1498 1496 1493 1496 1499 1500 1502 1504 1507 1510 1513 1515 1516 1517 1518 1518 1518 1518 1517 1515 1514 1511 1510 1508 1507 1505 1503 1501 1499 1498 1496 1494
1488 1488 1491 1495 1497 1499 1498 1499 1498 1500 1500 1500 1500 1494 1490 1492 1496 1498 1500 1502 1504 1507 1510 1512 1514 1515 1516 1516 1516 1516 1515 1514 1512 1511 1509 1507 1506 1505 1503 1501 1499 1497 1495 1493
1488 1490 1493 1494 1495 1496 1499 1496 1498 1500 1501 1497 1500 1500 1487 1488 1492 1494 1497 1499 1501 1504 1507 1509 1511 1513 1514 1514 1514 1514 1514 1513 1512 1510 1509 1507 1506 1505 1503 1500 1498 1496 1495 1493
1489 1491 1492 1493 1493 1495 1496 1499 1498 1499 1499 1499 1496 1498 1486 1487 1488 1488 1491 1495 1498 1501 1504 1507 1508 1510 1512 1512 1512 1513 1512 1512 1510 1509 1507 1506 1505 1504 1502 1500 1498 1496 1495 1492
1490 1492 1492 1492 1495 1497 1500 1500 1500 1498 1497 1503 1496 1499 1492 1482 1483 1484 1488 1492 1495 1498 1501 1504 1506 1508 1509 1510 1510 1511 1511 1510 1509 1508 1507 1506 1505 1503 1501 1500 1498 1496 1495 1493
1492 1492 1494 1495 1497 1500 1499 1499 1504 1504 1504 1499 1497 1499 1489 1480 1483 1486 1487 1490 1493 1496 1499 1501 1503 1505 1507 1508 1509 1509 1509 1509 1508 1507 1506 1505 1504 1502 1501 1499 1498 1496 1495 1493
1492 1496 1492 1493 1492 1494 1495 1495 1505 1511 1507 1497 1497 1495 1482 1482 1485 1487 1488 1490 1492 1494 1496 1499 1501 1503 1504 1506 1507 1507 1508 1508 1507 1506 1506 1505 1504 1502 1501 1499 1498 1496 1495 1493
1487 1493 1492 1493 1493 1492 1494 1493 1492 1496 1498 1502 1490 1486 1479 1480 1483 1485 1487 1489 1490 1492 1494 1496 1499 1501 1502 1504 1505 1506 1506 1506 1506 1506 1505 1504 1503 1502 1501 1499 1498 1496 1494 1492
1481 1490 1492 1494 1494 1497 1492 1491 1495 1498 1505 1504 1495 1489 1482 1477 1479 1481 1484 1486 1488 1490 1492 1494 1496 1498 1500 1502 1503 1504 1504 1505 1505 1504 1504 1503 1503 1502 1500 1499 1498 1496 1494 1492
1483 1485 1492 1492 1491 1490 1495 1495 1493 1494 1497 1503 1501 1489 1475 1476 1477 1478 1480 1483 1485 1487 1490 1492 1494 1496 1498 1499 1500 1502 1503 1503 1503 1503 1503 1503 1502 1501 1500 1499 1497 1496 1494 1493
1484 1482 1487 1488 1489 1491 1489 1488 1491 1497 1496 1497 1498 1489 1473 1476 1477 1478 1479 1481 1483 1485 1487 1489 1491 1493 1495 1497 1498 1500 1501 1501 1502 1502 1502 1502 1501 1500 1500 1499 1498 1496 1495 1493
1486 1485 1491 1492 1494 1492 1490 1490 1490 1490 1490 1492 1497 1486 1472 1474 1475 1476 1477 1479 1481 1483 1485 1486 1488 1490 1492 1494 1496 1497 1499 1499 1500 1500 1500 1500 1500 1500 1499 1499 1497 1496 1495 1494
1487 1482 1487 1494 1488 1484 1487 1489 1490 1490 1489 1487 1485 1479 1470 1470 1471 1472 1474 1476 1478 1480 1481 1483 1485 1487 1489 1491 1493 1495 1496 1497 1498 1498 1499 1499 1499 1499 1498 1498 1497 1496 1495 1494
1486 1482 1480 1481 1481 1483 1483 1483 1486 1486 1480 1481 1475 1472 1467 1464 1466 1468 1470 1472 1474 1476 1478 1479 1481 1484 1486 1488 1490 1492 1494 1495 1496 1497 1497 1498 1498 1498 1497 1497 1496 1496 1495 1494
1484 1482 1481 1481 1480 1482 1482 1479 1478 1480 1477 1475 1472 1469 1461 1461 1463 1464 1466 1467 1469 1471 1473 1475 1477 1480 1482 1484 1487 1489 1491 1492 1493 1495 1496 1496 1496 1496 1496 1496 1496 1495 1494 1494
1482 1481 1483 1481 1477 1481 1479 1469 1469 1470 1468 1468 1468 1461 1457 1458 1458 1459 1461 1462 1463 1465 1468 1470 1473 1475 1478 1481 1483 1486 1488 1490 1491 1493 1494 1494 1495 1495 1495 1495 1495 1494 1494 1493
1480 1480 1480 1480 1481 1488 1468 1462 1464 1465 1462 1460 1459 1456 1456 1456 1455 1456 1456 1457 1458 1461 1463 1466 1469 1471 1474 1477 1480 1483 1485 1487 1489 1490 1491 1492 1493 1493 1494 1494 1494 1493 1493 1492
1480 1480 1480 1480 1481 1474 1463 1460 1463 1464 1458 1453 1453 1452 1453 1454 1453 1451 1451 1452 1454 1456 1459 1462 1465 1468 1471 1474 1476 1479 1482 1484 1486 1487 1489 1490 1491 1491 1492 1492 1492 1492 1491 1491
1482 1479 1478 1479 1482 1479 1463 1458 1460 1462 1458 1451 1451 1451 1451 1452 1450 1446 1448 1448 1450 1452 1455 1458 1461 1464 1467 1470 1473 1476 1479 1481 1483 1484 1486 1487 1488 1489 1489 1490 1490 1490 1489 1489
1477 1478 1478 1475 1475 1465 1456 1459 1461 1465 1456 1453 1452 1451 1451 1450 1448 1447 1446 1446 1448 1449 1452 1454 1457 1460 1463 1466 1469 1472 1475 1478 1480 1481 1483 1484 1485 1486 1487 1487 1487 1487 1487 1486
1469 1470 1471 1470 1473 1467 1456 1458 1458 1455 1454 1453 1452 1451 1450 1448 1447 1446 1445 1445 1445 1447 1449 1451 1454 1457 1460 1462 1466 1469 1472 1474 1476 1478 1480 1481 1482 1483 1484 1484 1484 1484 1484 1484
1468 1465 1463 1462 1460 1457 1458 1458 1457 1456 1455 1453 1451 1450 1448 1446 1444 1444 1443 1443 1443 1444 1446 1448 1451 1453 1456 1459 1462 1466 1468 1471 1473 1475 1477 1478 1479 1480 1481 1481 1482 1482 1481 1481
1465 1468 1466 1461 1455 1456 1457 1456 1456 1455 1453 1452 1450 1448 1446 1443 1442 1441 1440 1440 1440 1441 1443 1445 1447 1449 1452 1455 1458 1462 1465 1467 1469 1472 1473 1475 1476 1477 1478 1478 1478 1479 1479 1479
1467 1467 1463 1459 1455 1455 1453 1454 1453 1452 1450 1448 1446 1444 1442 1440 1438 1437 1436 1436 1436 1437 1439 1440 1443 1445 1448 1451 1454 1457 1460 1463 1466 1468 1470 1471 1473 1474 1474 1475 1475 1475 1475 1476
1467 1465 1462 1457 1456 1455 1452 1452 1451 1449 1446 1444 1442 1439 1437 1436 1434 1433 1432 1432 1432 1433 1434 1436 1438 1440 1443 1446 1449 1452 1455 1458 1461 1464 1466 1467 1469 1470 1471 1471 1472 1472 1472 1472